{"data":{"norad_id":64551,"intl_designator":"2025-135Z","name":"SATMAR","alt_names":[],"object_type":"PAYLOAD","status":"ACTIVE","operator":null,"country":"SPN","launch_date":"2025-06-23","launch_site_code":"AFWTR","launch_vehicle":null,"mission":null,"orbit_class":"UNKNOWN","rcs_meters":null,"size_class":null,"mass_kg":null,"dimensions":null,"purposes":[],"wikipedia_slug":null,"has_3d_model":false,"image_url":null,"decayed_at":null,"tle_current":{"epoch":"2026-05-24T21:16:41.305152Z","epoch_age_seconds":85191,"freshness":"FRESH","line1":"1 64551U 25135Z   26144.88658918  .00006657  00000+0  27315-3 0  9991","line2":"2 64551  97.4587 260.7300 0001346  57.4755 302.6613 15.24564227 51373","mean_motion":15.24564227,"eccentricity":0.0001346,"inclination_deg":97.4587,"raan_deg":260.73,"arg_perigee_deg":57.4755,"mean_anomaly_deg":302.6613,"bstar":0.00027315,"rev_number":5137,"period_min":94.453219778979,"perigee_km":491.16955479208,"apogee_km":493.01902105479,"semimajor_km":6870.2312879234,"source":"CELESTRAK","updated_at":"2026-05-25T13:38:04.613330Z"}}}